[[{"header":{"parameterUnit":"m.s-1","parameterCategory":1,"la1":30.2991,"la2":30.254,"lo1":-89.0895,"lo2":-89.0444,"dy":0.0017,"dx":0.0017,"nx":28,"ny":28,"refTime":"2023-11-03T21:00:00:Z","depth":0,"parameterNumber":2,"parameterNumberName":"U-component_of_WINDS"},"data":[0,0,0,0,0,0,0,0,0,0,0,0,0,0,0,0,0,0,0,0,0,0,0,0,0,0,0,0,0,0,0,0,0,0,0,0,0,0,0,0,0,0,0,0,0,0,0,0,0,0,0,0,0,0,0,0,0,0,-0.1918,-0.1919,0,-0.2012,-0.2013,-0.2014,-0.2026,-0.2026,-0.2025,-0.2024,-0.2122,-0.2125,-0.2128,0,0,0,0,0,0,0,0,0,0,0,0,0,-0.1752,-0.1755,-0.1918,-0.1919,-0.192,-0.2011,-0.2013,-0.2014,-0.2027,-0.2025,-0.2024,-0.2023,-0.2121,-0.2125,-0.2129,0,0,0,0,0,0,0,0,0,0,0,0,0,-0.1833,-0.1756,-0.1918,-0.1937,-0.194,-0.2011,-0.2013,-0.2014,-0.2027,-0.2025,-0.2024,-0.2023,-0.2119,-0.2124,-0.2129,-0.2188,0,0,-0.2145,-0.2147,0,0,0,0,0,0,0,0,-0.1828,-0.1839,-0.1933,-0.1936,-0.1939,-0.2006,-0.199,-0.2073,-0.2027,-0.1994,-0.2024,-0.2022,-0.2084,-0.2092,-0.2113,-0.2192,-0.2196,-0.2146,-0.2149,-0.2151,-0.2152,0,0,0,0,0,0,0,-0.1823,-0.1835,-0.1955,-0.1935,-0.1938,-0.1942,-0.1952,-0.2006,-0.2046,-0.1997,-0.1998,-0.2009,-0.2086,-0.2108,-0.2115,-0.2198,-0.2145,-0.215,-0.2153,-0.2155,-0.2331,-0.2332,0,0,0,0,0,0,-0.1813,-0.183,-0.1952,-0.1958,-0.1879,-0.1946,-0.1958,-0.1986,-0.2045,-0.2053,-0.201,-0.2009,-0.21,-0.2109,-0.2119,-0.2191,-0.2151,-0.2156,-0.2159,-0.2329,-0.2331,-0.2333,0,0,0,0,0,0,-0.1809,-0.1824,-0.1948,-0.1894,-0.191,-0.1951,-0.1982,-0.1988,-0.2011,-0.2055,-0.2062,-0.2025,-0.2099,-0.2112,-0.2171,-0.2195,-0.2158,-0.2163,-0.2327,-0.233,-0.2332,-0.2337,0,0,0,0,0,0,-0.1805,-0.1822,-0.1844,-0.1895,-0.1913,-0.1998,-0.1984,-0.1991,-0.2019,-0.2019,-0.2071,-0.2078,-0.2099,-0.2163,-0.2176,-0.2201,-0.2167,-0.2325,-0.2328,-0.2331,-0.2335,-0.2339,-0.2343,0,0,0,0,0,-0.1799,-0.1842,-0.1845,-0.186,-0.1941,-0.1999,-0.201,-0.2032,-0.2021,-0.2044,-0.2072,-0.2077,-0.219,-0.2169,-0.2183,-0.2211,-0.2324,-0.2328,-0.2331,-0.2333,-0.2338,-0.2343,0,0,0,0,0,0,-0.1794,-0.1849,-0.1853,-0.1914,-0.1952,-0.2001,-0.203,-0.2037,-0.2079,-0.2077,-0.2104,-0.2115,-0.2173,-0.2198,-0.2173,-0.2271,-0.2256,-0.2263,-0.2252,-0.2258,-0.2262,-0.2255,-0.2171,0,0,0,0,0,-0.18,-0.1842,-0.1888,-0.1937,-0.1956,-0.199,-0.2016,-0.203,-0.207,-0.2086,-0.2119,-0.2158,-0.2203,-0.2232,-0.2275,-0.2338,-0.235,-0.2365,-0.2369,-0.2372,-0.2377,-0.2413,-0.242,-0.2344,-0.2344,-0.2344,0,0,-0.1814,-0.1849,-0.1873,-0.1937,-0.1968,-0.2011,-0.2003,-0.2049,-0.2081,-0.2093,-0.2151,-0.2176,-0.2222,-0.2284,-0.2312,-0.2306,-0.2401,-0.2376,-0.2378,-0.2382,-0.2417,-0.2424,-0.2431,-0.2347,-0.2346,-0.2346,0,0,-0.1859,-0.189,-0.1935,-0.1966,-0.2012,-0.2035,-0.2045,-0.2094,-0.2111,-0.2169,-0.2179,-0.2218,-0.2295,-0.2327,-0.2353,-0.2412,-0.2418,-0.2426,-0.2447,-0.2481,-0.2487,-0.2493,-0.2514,-0.2521,-0.2431,-0.2431,-0.2431,0,-0.187,-0.1934,-0.1957,-0.2003,-0.2031,-0.2043,-0.2089,-0.2118,-0.2177,-0.2196,-0.2188,-0.2285,-0.2316,-0.2386,-0.24,-0.2421,-0.2434,-0.242,-0.2484,-0.249,-0.2496,-0.2516,-0.2524,-0.2432,-0.2432,-0.2431,-0.2431,0,-0.1946,-0.199,-0.2021,-0.2077,-0.2108,-0.2154,-0.2184,-0.2214,-0.2225,-0.2249,-0.2308,-0.2347,-0.2398,-0.2416,-0.2428,-0.2487,-0.2482,-0.2479,-0.2465,-0.2503,-0.2523,-0.2531,-0.2433,-0.2432,-0.2432,-0.2432,0,0,-0.1991,-0.2059,-0.207,-0.2095,-0.2148,-0.2183,-0.223,-0.228,-0.2305,-0.2345,-0.2385,-0.2449,-0.2447,-0.2477,-0.2493,-0.2523,-0.2568,-0.2517,-0.2518,-0.2525,-0.2636,-0.2638,-0.2646,-0.2572,-0.2573,-0.2575,-0.2632,0,-0.2043,-0.2125,-0.2147,-0.2218,-0.226,-0.2272,-0.2313,-0.235,-0.2373,-0.2413,-0.2439,-0.2484,-0.2478,-0.2496,-0.2527,-0.2556,-0.259,-0.2552,-0.261,-0.2612,-0.2598,-0.2657,-0.2659,-0.2711,-0.264,-0.2641,-0.2642,0,-0.2115,-0.2156,-0.223,-0.2278,-0.2296,-0.2332,-0.238,-0.2418,-0.246,-0.2475,-0.2509,-0.2522,-0.2571,-0.2554,-0.2624,-0.2597,-0.2622,-0.264,-0.2643,-0.2649,-0.2629,-0.2665,-0.2728,-0.2736,-0.2655,-0.2654,-0.2653,0,-0.214,-0.2215,-0.2269,-0.229,-0.2347,-0.2372,-0.2397,-0.2438,-0.2467,-0.2509,-0.2528,-0.2576,-0.2602,-0.2639,-0.2665,-0.265,-0.2732,-0.2717,-0.2746,-0.2746,-0.2763,-0.2761,-0.2832,-0.2779,-0.2779,-0.2779,-0.2779,0,-0.2196,-0.2241,-0.2281,-0.2314,-0.2366,-0.2391,-0.2441,-0.2467,-0.2503,-0.2542,-0.2556,-0.2593,-0.2625,-0.2666,-0.2686,-0.2741,-0.2752,-0.2766,-0.2771,-0.2765,-0.2763,-0.2782,-0.2779,-0.2781,-0.278,-0.278,-0.278,0,-0.2233,-0.2262,-0.2322,-0.2371,-0.2384,-0.242,-0.2462,-0.2495,-0.2519,-0.2568,-0.2581,-0.2619,-0.2668,-0.2698,-0.276,-0.2774,-0.2834,-0.2837,-0.2819,-0.2822,-0.2849,-0.2846,-0.2933,-0.2946,-0.2885,-0.2886,-0.2886,0,-0.2267,-0.2302,-0.2355,-0.2381,-0.2407,-0.245,-0.2479,-0.2506,-0.2536,-0.2588,-0.2615,-0.2665,-0.2706,-0.2784,-0.2817,-0.2865,-0.287,-0.2897,-0.2877,-0.287,-0.287,-0.2868,-0.2871,-0.29,-0.2901,-0.2901,-0.2902,0,-0.2324,-0.2336,-0.2378,-0.2425,-0.2459,-0.2498,-0.2536,-0.2557,-0.2591,-0.2624,-0.2674,-0.2706,-0.2769,-0.2819,-0.287,-0.2896,-0.2905,-0.2908,-0.2917,-0.2911,-0.2899,-0.2906,-0.2828,-0.2906,-0.2905,-0.2905,-0.2905,-0.2905,-0.236,-0.2392,-0.2434,-0.248,-0.2512,-0.2547,-0.2581,-0.2609,-0.2651,-0.2704,-0.2718,-0.2771,-0.2813,-0.2882,-0.291,-0.2952,-0.2947,-0.2961,-0.2964,-0.2967,-0.2968,-0.2892,-0.2961,-0.2961,-0.2961,-0.2961,-0.2961,0,-0.2418,-0.2445,-0.2488,-0.254,-0.2577,-0.2582,-0.2624,-0.2655,-0.2701,-0.2739,-0.278,-0.2837,-0.2886,-0.2923,-0.2973,-0.2999,-0.3004,-0.3011,-0.3009,-0.3015,-0.2969,-0.2956,-0.3006,-0.3006,-0.3006,-0.3006,-0.3006,-0.3006,-0.2452,-0.2506,-0.2523,-0.2594,-0.2621,-0.2672,-0.2697,-0.273,-0.2761,-0.2824,-0.2864,-0.2888,-0.2927,-0.2979,-0.3024,-0.3034,-0.3051,-0.3058,-0.3068,-0.3024,-0.3019,-0.3014,-0.3002,-0.3061,-0.3061,-0.3111,-0.3112,-0.3112]},{"header":{"parameterUnit":"m.s-1","parameterCategory":1,"la1":30.2991,"la2":30.254,"lo1":-89.0895,"lo2":-89.0444,"dy":0.0017,"dx":0.0017,"nx":28,"ny":28,"refTime":"2023-11-03T21:00:00:Z","depth":0,"parameterNumber":3,"parameterNumberName":"V-component_of_WINDS"},"data":[0,0,0,0,0,0,0,0,0,0,0,0,0,0,0,0,0,0,0,0,0,0,0,0,0,0,0,0,0,0,0,0,0,0,0,0,0,0,0,0,0,0,0,0,0,0,0,0,0,0,0,0,0,0,0,0,0,0,-2.2921,-2.2922,0,-2.3003,-2.3004,-2.3005,-2.3017,-2.3016,-2.3015,-2.3015,-2.3096,-2.3099,-2.3102,0,0,0,0,0,0,0,0,0,0,0,0,0,-2.2773,-2.2776,-2.2921,-2.2922,-2.2923,-2.3003,-2.3004,-2.3005,-2.3017,-2.3016,-2.3015,-2.3014,-2.3095,-2.3098,-2.3102,0,0,0,0,0,0,0,0,0,0,0,0,0,-2.2844,-2.2777,-2.2921,-2.2939,-2.2941,-2.3002,-2.3004,-2.3005,-2.3017,-2.3016,-2.3015,-2.3014,-2.3094,-2.3098,-2.3102,-2.3151,0,0,-2.3115,-2.3117,0,0,0,0,0,0,0,0,-2.284,-2.285,-2.2935,-2.2938,-2.294,-2.2999,-2.2981,-2.3054,-2.3018,-2.2988,-2.3015,-2.3013,-2.3064,-2.3071,-2.3089,-2.3154,-2.3158,-2.3116,-2.3118,-2.312,-2.3121,0,0,0,0,0,0,0,-2.2835,-2.2846,-2.2953,-2.2936,-2.294,-2.2942,-2.2951,-2.2995,-2.3031,-2.2991,-2.2992,-2.3001,-2.3066,-2.3084,-2.3091,-2.3159,-2.3116,-2.3119,-2.3122,-2.3124,-2.3268,-2.3269,0,0,0,0,0,0,-2.2828,-2.2842,-2.2951,-2.2956,-2.2887,-2.2946,-2.2956,-2.2981,-2.3031,-2.3038,-2.3002,-2.3002,-2.3078,-2.3086,-2.3093,-2.3153,-2.312,-2.3124,-2.3127,-2.3267,-2.3269,-2.327,0,0,0,0,0,0,-2.2824,-2.2837,-2.2947,-2.2899,-2.2914,-2.2949,-2.2978,-2.2983,-2.3002,-2.304,-2.3046,-2.3015,-2.3077,-2.3087,-2.3136,-2.3156,-2.3126,-2.313,-2.3265,-2.3267,-2.3269,-2.3273,0,0,0,0,0,0,-2.282,-2.2836,-2.2855,-2.29,-2.2916,-2.299,-2.2979,-2.2986,-2.301,-2.301,-2.3053,-2.306,-2.3077,-2.313,-2.3141,-2.3162,-2.3133,-2.3264,-2.3266,-2.3269,-2.3271,-2.3275,-2.3278,0,0,0,0,0,-2.2815,-2.2852,-2.2856,-2.2869,-2.2941,-2.2991,-2.3,-2.302,-2.3011,-2.3031,-2.3055,-2.3058,-2.3152,-2.3135,-2.3147,-2.3169,-2.3263,-2.3266,-2.3268,-2.327,-2.3274,-2.3278,0,0,0,0,0,0,-2.2808,-2.2859,-2.2863,-2.2917,-2.2949,-2.2993,-2.3018,-2.3024,-2.306,-2.3058,-2.3081,-2.309,-2.3138,-2.3159,-2.3138,-2.3219,-2.3207,-2.3212,-2.3204,-2.3208,-2.3211,-2.3205,-2.3137,0,0,0,0,0,-2.2813,-2.285,-2.2892,-2.2935,-2.2951,-2.2982,-2.3004,-2.3017,-2.3051,-2.3065,-2.3093,-2.3126,-2.3163,-2.3186,-2.3223,-2.3274,-2.3284,-2.3296,-2.3299,-2.3302,-2.3306,-2.3335,-2.334,-2.3279,-2.3279,-2.3279,0,0,-2.2824,-2.2856,-2.2878,-2.2935,-2.2961,-2.2999,-2.2993,-2.3033,-2.306,-2.3071,-2.3119,-2.314,-2.3178,-2.3229,-2.3253,-2.3248,-2.3325,-2.3305,-2.3307,-2.331,-2.3338,-2.3344,-2.3349,-2.3281,-2.3281,-2.3281,0,0,-2.2862,-2.289,-2.2929,-2.2956,-2.2997,-2.3017,-2.3026,-2.3069,-2.3084,-2.3133,-2.3142,-2.3174,-2.3238,-2.3264,-2.3286,-2.3334,-2.3339,-2.3345,-2.3363,-2.339,-2.3395,-2.3399,-2.3416,-2.3422,-2.335,-2.335,-2.335,0,-2.2869,-2.2926,-2.2948,-2.2987,-2.3012,-2.3024,-2.3063,-2.3088,-2.3139,-2.3155,-2.3149,-2.3229,-2.3255,-2.3312,-2.3324,-2.3341,-2.3352,-2.3341,-2.3393,-2.3397,-2.3402,-2.3418,-2.3425,-2.335,-2.335,-2.335,-2.335,0,-2.2933,-2.2973,-2.2999,-2.3049,-2.3076,-2.3115,-2.3142,-2.3167,-2.3177,-2.3198,-2.3247,-2.3279,-2.3322,-2.3337,-2.3347,-2.3395,-2.3391,-2.3388,-2.3377,-2.3408,-2.3424,-2.343,-2.3351,-2.3351,-2.3351,-2.3351,0,0,-2.297,-2.3031,-2.304,-2.3062,-2.3109,-2.3139,-2.3179,-2.3221,-2.3242,-2.3277,-2.331,-2.3363,-2.3362,-2.3387,-2.34,-2.3424,-2.346,-2.3419,-2.342,-2.3425,-2.3515,-2.3516,-2.3523,-2.3463,-2.3464,-2.3465,-2.3512,0,-2.3013,-2.3085,-2.3105,-2.3165,-2.3201,-2.3213,-2.3248,-2.3279,-2.3299,-2.3333,-2.3354,-2.3392,-2.3387,-2.3402,-2.3427,-2.345,-2.3478,-2.3447,-2.3494,-2.3495,-2.3484,-2.3531,-2.3533,-2.3575,-2.3518,-2.3519,-2.352,0,-2.3073,-2.311,-2.3173,-2.3215,-2.3231,-2.3262,-2.3302,-2.3334,-2.337,-2.3383,-2.3411,-2.3422,-2.3463,-2.3449,-2.3505,-2.3484,-2.3504,-2.3518,-2.352,-2.3525,-2.3509,-2.3537,-2.3589,-2.3595,-2.353,-2.3529,-2.3528,0,-2.3093,-2.3158,-2.3205,-2.3223,-2.3273,-2.3294,-2.3316,-2.3351,-2.3375,-2.341,-2.3426,-2.3466,-2.3487,-2.3517,-2.3538,-2.3526,-2.3592,-2.358,-2.3603,-2.3603,-2.3617,-2.3616,-2.3672,-2.363,-2.363,-2.363,-2.3629,0,-2.3139,-2.3178,-2.3214,-2.3243,-2.3286,-2.3309,-2.3351,-2.3373,-2.3404,-2.3436,-2.3449,-2.3479,-2.3505,-2.3538,-2.3555,-2.3599,-2.3608,-2.3619,-2.3623,-2.3618,-2.3617,-2.3632,-2.3629,-2.3631,-2.3631,-2.3631,-2.363,0,-2.3169,-2.3195,-2.3247,-2.329,-2.3301,-2.3331,-2.3368,-2.3396,-2.3416,-2.3457,-2.3468,-2.35,-2.354,-2.3564,-2.3614,-2.3625,-2.3674,-2.3677,-2.3662,-2.3664,-2.3686,-2.3683,-2.3754,-2.3764,-2.3715,-2.3715,-2.3716,0,-2.3197,-2.3227,-2.3273,-2.3297,-2.3319,-2.3356,-2.3381,-2.3404,-2.3429,-2.3473,-2.3495,-2.3536,-2.357,-2.3633,-2.366,-2.3699,-2.3703,-2.3725,-2.3708,-2.3702,-2.3703,-2.3701,-2.3704,-2.3727,-2.3728,-2.3728,-2.3728,0,-2.3244,-2.3255,-2.3291,-2.3332,-2.3362,-2.3394,-2.3427,-2.3445,-2.3474,-2.3502,-2.3543,-2.357,-2.3621,-2.3662,-2.3702,-2.3724,-2.3731,-2.3733,-2.3741,-2.3736,-2.3726,-2.3731,-2.3669,-2.3731,-2.3731,-2.3731,-2.3731,-2.3731,-2.3274,-2.3301,-2.3338,-2.3377,-2.3405,-2.3435,-2.3463,-2.3487,-2.3523,-2.3567,-2.3579,-2.3622,-2.3657,-2.3712,-2.3735,-2.3768,-2.3765,-2.3776,-2.3778,-2.3781,-2.3781,-2.3721,-2.3776,-2.3776,-2.3776,-2.3776,-2.3776,0,-2.3321,-2.3345,-2.3382,-2.3427,-2.3458,-2.3463,-2.3499,-2.3525,-2.3563,-2.3595,-2.3629,-2.3676,-2.3715,-2.3745,-2.3785,-2.3806,-2.3811,-2.3816,-2.3815,-2.382,-2.3782,-2.3772,-2.3812,-2.3812,-2.3812,-2.3812,-2.3812,-2.3812,-2.3349,-2.3396,-2.3411,-2.3471,-2.3495,-2.3538,-2.3558,-2.3586,-2.3612,-2.3665,-2.3697,-2.3717,-2.3749,-2.3791,-2.3827,-2.3834,-2.3848,-2.3853,-2.3862,-2.3826,-2.3822,-2.3818,-2.3809,-2.3856,-2.3856,-2.3897,-2.3897,-2.3897]}]]